KQ4KIJ-13 Weather Reports


time (UTC)temp
C
wind
direction
speed
KPH
gust
KPH
rain 1hr
cm
rain 24hr
cm
rain mn
cm
humidity
%
barometer
mb
20260509000333 16 129 1.6 20.9 0.00 0.00 0.00 65 1015.9
20260508233335 16 187 3.2 11.3 0.00 0.00 0.00 64 1016.1
20260508230332 17 26 4.8 16.1 0.00 0.00 0.00 61 1015.3
20260508223335 17 74 3.2 19.3 0.00 0.00 0.00 59 1015.3
20260508220332 18 174 6.4 20.9 0.00 0.00 0.00 56 1015.2
20260508214728 18 46 3.2 25.7 0.00 0.00 0.00 52 1015.6
20260508210332 18 120 1.6 17.7 0.00 0.00 0.00 52 1015.1
20260508203335 18 56 6.4 19.3 0.00 0.00 0.00 52 1015.2
20260508200329 18 52 3.2 22.5 0.00 0.00 0.00 52 1015.9
20260508193334 18 267 8.0 24.1 0.00 0.00 0.00 50 1016.3
20260508190325 18 184 4.8 17.7 0.00 0.00 0.00 50 1016.9
20260508183326 18 226 11.3 20.9 0.00 0.00 0.00 50 1017.2
20260508180321 18 149 11.3 19.3 0.00 0.00 0.00 49 1017.2
20260508174656 18 112 3.2 17.7 0.00 0.00 0.00 48 1017.7
20260508170318 17 259 3.2 17.7 0.00 0.00 0.00 46 1018.5
20260508163331 16 161 4.8 17.7 0.00 0.00 0.00 44 1019.1
20260508160314 16 172 6.4 11.3 0.00 0.00 0.00 44 1019.4
20260508154711 16 141 1.6 11.3 0.00 0.00 0.00 48 1019.7
20260508151659 15 244 6.4 12.9 0.00 0.00 0.00 48 1019.9
20260508143310 14 65 4.8 9.7 0.00 0.00 0.00 53 1020.4
20260508140306 12 91 4.8 8.0 0.00 0.00 0.00 62 1020.4
20260508133308 12 263 1.6 8.0 0.00 0.00 0.00 73 1020.5
20260508131648 10 201 0.0 8.0 0.00 0.00 0.00 88 1020.5
20260508123305 8 172 3.2 6.4 0.00 0.00 0.00 99 1020.3
20260508120259 7 130 0.0 4.8 0.00 0.00 0.00 99 1020.2
20260508113300 7 218 3.2 9.7 0.00 0.00 0.00 99 1019.7
20260508110255 7 139 3.2 9.7 0.00 0.00 0.00 99 1019.1
20260508103257 6 102 3.2 4.8 0.00 0.00 0.00 99 1018.7
20260508100251 6 52 1.6 6.4 0.00 0.00 0.00 99 1018.4
20260508093253 6 100 1.6 4.8 0.00 0.00 0.00 99 1018.2
20260508090251 7 107 0.0 3.2 0.00 0.00 0.00 99 1018.0
20260508083252 7 114 1.6 8.0 0.00 0.00 0.00 99 1017.8
20260508080247 7 146 3.2 6.4 0.00 0.00 0.00 99 1017.5
20260508073249 7 99 3.2 9.7 0.00 0.00 0.00 99 1017.7
20260508070246 7 116 3.2 9.7 0.00 0.00 0.00 99 1017.3
20260508063247 7 76 0.0 6.4 0.00 0.00 0.00 99 1017.3
20260508060243 7 112 3.2 4.8 0.00 0.00 0.00 99 1017.5
20260508053245 8 78 4.8 6.4 0.00 0.00 0.00 99 1017.6
20260508043244 8 113 0.0 6.4 0.00 0.00 0.00 99 1017.3
20260508040238 8 108 1.6 3.2 0.00 0.00 0.00 99 1017.2
20260508034620 8 81 0.0 4.8 0.00 0.00 0.00 98 1017.6
20260508023239 8 172 3.2 3.2 0.00 0.00 0.00 97 1017.2
20260508020234 9 212 0.0 3.2 0.00 0.00 0.00 96 1017.0
20260508013236 9 111 1.6 4.8 0.00 0.00 0.00 94 1016.6
20260508010233 10 184 1.6 6.4 0.00 0.00 0.00 92 1016.4
20260508003236 11 84 1.6 8.0 0.00 0.00 0.00 88 1016.1